Wind_Speed
16 18 21 23 24 24 25 29 29 30 30 29 29 27 26 25 24 23 20 15 15 15 15 16 19 18 17 17 16 17 17 16 16 17 16 16 16 16 14 14 14 13 13
22 20 23 24 24 25 25 27 27 28 28 27 27 26 26 22 20 18 17 17 16 15 15 15 16 17 16 16 14 15 16 15 15 15 14 12 13 14 13 13 12 11 10
22 21 23 24 24 25 26 27 27 28 28 27 27 26 23 20 18 16 17 17 15 15 15 15 15 15 15 16 18 16 15 14 15 13 13 11 12 13 13 13 11 10 10
24 22 23 23 23 25 25 26 26 26 25 26 27 27 22 20 19 17 16 17 15 14 14 14 14 13 14 15 18 16 14 13 13 12 13 12 11 10 11 12 12 11 9
25 24 24 23 23 23 24 26 26 24 24 25 27 24 20 20 20 19 15 15 14 13 14 14 14 14 14 14 16 14 14 12 12 14 12 10 11 11 10 11 11 9 10
24 23 24 23 23 22 22 25 27 25 24 25 24 22 20 18 17 16 14 13 13 12 12 13 14 15 15 13 14 12 11 8 7 9 9 9 12 11 11 11 11 10 9
25 22 22 21 23 21 22 23 24 25 23 24 23 22 20 16 15 13 12 12 11 11 14 14 14 14 14 12 10 8 4 3 5 7 8 9 10 9 10 10 10 10 9
24 22 22 20 20 21 22 23 23 25 24 24 23 20 18 16 14 12 9 10 10 11 12 13 13 13 13 12 10 7 4 2 6 8 9 9 9 7 8 8 9 9 9
22 21 20 21 20 20 22 21 22 23 24 22 20 19 17 14 12 9 10 9 9 10 12 11 11 12 11 11 9 7 4 3 6 8 8 8 7 7 7 7 9 9 9
22 19 20 21 20 21 21 21 20 21 22 19 18 17 15 12 9 8 9 8 8 9 10 10 10 11 11 11 10 7 4 4 8 9 8 8 7 8 7 7 7 8 9
22 20 20 21 21 20 21 20 19 17 18 18 16 15 13 13 11 10 10 9 7 6 7 8 9 10 12 12 10 7 3 2 8 9 8 8 8 9 9 9 9 9 9
20 21 21 21 23 22 20 20 19 17 16 18 18 17 16 14 13 12 10 9 8 6 6 7 8 9 11 14 12 10 6 4 5 9 10 11 11 11 10 11 12 11 11
21 20 24 23 23 23 24 23 22 21 19 18 19 19 18 16 14 13 11 10 9 8 8 7 8 9 12 14 13 11 8 7 7 10 13 14 15 13 12 13 13 15 14
23 21 26 27 26 25 23 23 22 22 21 21 19 18 18 18 17 15 13 12 12 12 11 11 11 10 10 13 13 11 9 8 10 13 14 12 15 15 14 13 15 15 15
24 22 26 30 29 27 25 24 22 23 21 20 21 20 20 19 18 17 16 15 14 14 15 13 13 11 11 12 12 11 10 8 10 12 12 13 14 14 15 13 13 15 16
27 24 25 32 29 28 27 26 26 25 24 22 22 22 22 21 21 19 18 17 17 16 16 16 14 13 12 12 12 12 12 10 9 7 9 13 14 15 15 16 14 15 16
30 27 28 31 30 29 27 25 25 25 25 24 24 23 23 23 22 20 20 20 19 17 17 17 17 16 16 15 15 13 13 11 10 10 11 13 15 16 17 16 16 16 17
27 28 27 28 30 29 29 26 25 25 26 25 24 24 25 25 24 23 23 25 20 18 19 19 19 18 19 18 17 16 15 15 13 14 14 16 21 20 22 19 17 15 18
30 29 27 26 27 29 30 28 25 25 26 26 26 26 25 25 25 25 25 25 22 22 21 22 20 20 20 21 21 20 19 18 17 17 17 17 18 19 22 21 20 19 18
28 27 25 26 25 24 26 26 26 25 26 27 28 27 26 27 27 27 28 28 27 25 24 25 24 24 23 23 22 22 23 21 21 23 20 19 20 21 20 23 24 22 20
26 27 27 26 27 26 24 27 28 30 29 31 31 31 29 29 30 30 30 31 31 30 29 30 27 28 28 25 20 21 26 27 25 25 25 25 24 25 26 24 23 24 24
29 28 25 26 26 29 29 27 23 18 24 27 30 35 35 34 34 32 31 33 33 32 32 32 28 26 27 26 13 7 3 11 19 27 29 29 27 27 28 27 26 25 25
24 23 25 27 29 30 31 28 26 24 25 27 31 31 33 34 38 35 35 31 32 33 35 35 35 31 24 24 24 12 1 5 3 12 17 25 27 27 27 27 28 28 29
19 16 18 22 27 28 28 30 32 33 28 30 29 35 34 34 35 36 35 36 34 34 35 35 36 37 32 22 22 28 28 10 2 3 5 9 14 22 26 24 24 26 28
12 14 17 20 20 21 23 26 28 33 30 30 32 34 31 31 29 31 33 39 40 37 37 37 36 36 38 30 28 21 27 25 24 11 9 11 14 13 11 12 14 22 24
3 3 1 3 5 11 14 20 25 28 29 28 31 31 32 30 29 30 31 34 37 42 41 41 40 39 39 39 33 33 27 13 17 17 9 16 15 22 27 29 29 25 22
Wind_Direction
146 150 151 136 137 139 137 137 136 135 133 130 129 130 127 122 120 122 123 121 116 108 104 100 100 100 103 101 102 106 105 106 110 107 107 108 110 112 107 106 109 106 105
144 146 148 140 138 137 136 143 137 138 131 131 131 129 128 121 119 119 118 114 111 108 105 103 108 107 108 109 106 103 109 113 110 112 110 108 111 110 114 112 117 107 112
139 143 143 145 141 140 141 140 139 143 142 140 137 133 128 123 121 123 124 119 111 107 109 111 111 113 115 114 113 110 108 112 116 115 124 115 117 117 115 115 115 117 107
139 144 140 143 142 146 149 149 146 145 145 145 144 140 130 127 125 123 120 120 117 117 117 116 117 114 120 123 121 119 113 117 127 131 123 114 116 120 126 122 120 114 108
142 145 141 143 141 143 149 151 148 148 147 149 152 143 134 130 127 125 122 117 120 124 122 121 119 123 121 126 124 121 118 112 120 134 136 134 134 127 128 129 129 125 126
143 147 146 148 143 144 147 152 154 153 151 152 154 152 143 137 135 130 128 124 128 129 126 124 127 129 132 134 132 128 124 111 137 146 151 148 141 147 142 138 133 136 135
145 149 149 150 151 149 150 151 154 153 151 154 151 153 150 143 142 134 132 132 131 134 136 136 137 138 139 141 144 140 140 141 192 172 166 159 158 155 153 153 150 149 144
148 149 150 153 153 153 151 151 156 156 154 153 155 155 153 152 147 144 137 135 138 138 144 147 149 149 151 153 156 147 152 163 179 182 175 165 163 160 167 162 163 161 162
149 151 154 156 153 155 156 155 157 160 161 159 160 161 162 160 158 155 147 158 149 151 153 153 161 160 165 164 171 164 175 196 183 183 184 182 171 191 197 196 186 181 179
151 158 160 158 159 161 161 164 163 167 170 168 169 172 172 169 168 167 166 176 171 167 164 165 171 177 181 184 187 184 209 220 203 199 203 204 199 208 213 219 201 196 193
160 163 168 166 167 166 170 170 170 172 176 177 180 183 182 182 180 182 185 187 197 196 182 178 189 196 193 198 200 193 214 188 184 202 224 230 229 224 223 220 219 213 209
172 174 175 174 175 173 174 174 178 178 184 187 192 193 199 197 197 199 198 202 207 218 218 206 198 199 205 202 201 202 208 210 196 223 246 246 238 236 230 231 226 228 224
175 178 185 182 182 182 184 181 187 187 190 197 203 203 211 212 212 214 220 220 228 235 235 231 225 209 213 207 204 211 221 229 251 259 263 261 240 236 237 233 229 232 236
180 187 192 190 188 190 192 190 193 195 199 205 209 212 217 218 221 224 233 237 242 246 251 247 240 231 212 212 210 217 225 245 274 277 265 254 234 236 237 238 237 237 237
183 191 199 195 194 193 198 199 200 202 207 213 217 219 224 229 232 235 244 247 250 252 255 255 252 244 233 226 224 222 236 263 287 283 258 238 232 236 241 242 245 246 245
191 193 198 201 202 201 203 204 206 210 214 217 223 226 231 236 240 244 248 254 254 253 257 260 256 254 249 244 236 230 245 261 277 289 252 235 237 242 248 249 250 253 251
204 205 206 204 206 208 212 214 216 217 217 222 226 230 235 238 240 243 247 251 251 256 260 258 260 256 255 249 242 238 256 261 259 260 264 257 249 245 248 254 259 258 262
208 212 212 211 211 214 218 221 226 229 229 231 233 235 238 242 245 247 250 253 260 254 256 256 259 260 257 253 251 250 261 260 259 256 265 268 250 247 246 252 257 262 265
215 216 216 215 219 221 225 228 233 238 238 240 242 245 245 246 246 248 251 256 257 259 261 258 259 260 261 260 259 260 257 256 255 255 258 262 267 252 252 255 258 262 263
218 221 221 219 224 226 230 235 237 242 242 243 243 247 250 250 250 249 252 254 257 258 260 255 256 259 259 263 269 271 267 261 252 253 254 254 257 258 256 262 263 263 265
219 222 222 222 223 226 225 233 236 240 247 247 248 249 251 250 251 250 253 255 257 254 254 257 255 254 257 257 265 276 273 266 261 255 254 255 253 254 255 258 262 265 269
219 223 228 230 231 231 232 233 233 239 252 268 271 258 252 252 252 252 253 254 254 255 252 254 250 245 247 251 236 242 291 281 257 258 260 257 255 254 253 256 259 264 268
216 220 229 235 236 235 233 231 241 250 254 260 265 268 263 260 260 258 255 257 253 253 250 249 248 245 236 242 241 216 213 241 302 263 249 249 250 250 254 256 257 261 264
218 229 234 238 239 237 238 236 244 245 260 263 268 272 276 269 264 262 259 257 255 254 252 249 247 244 239 234 238 236 234 239 210 308 266 250 248 249 252 255 263 269 264
222 228 237 243 248 246 249 248 248 243 265 270 268 271 270 268 266 267 263 257 255 251 251 251 250 244 240 232 231 235 233 236 241 235 266 271 266 274 276 253 273 295 283
131 108 154 224 257 261 249 250 248 260 269 272 278 282 278 278 274 268 265 261 259 254 250 251 251 249 242 237 231 234 228 223 220 224 238 250 257 274 276 276 278 283 293
Height
798 801 803 803 805 809 810 813 816 818 819 821 824 826 829 830 832 833 835 837 839 839 840 840 840 841 843 844 845 845 846 849 850 851 852 852 852 853 855 856 857 859 859
799 801 803 806 809 811 814 815 820 822 824 826 827 830 832 834 836 837 838 840 842 843 843 843 843 844 846 846 848 848 849 851 853 854 855 856 856 856 857 859 860 861 862
801 804 805 808 810 812 815 819 822 825 827 828 830 833 836 837 839 840 841 842 845 846 846 846 847 847 849 849 849 852 853 854 855 856 857 858 858 859 860 861 863 863 864
803 806 808 811 813 814 818 820 823 827 829 831 833 835 838 839 841 843 844 845 847 848 849 849 850 851 852 852 852 854 855 856 856 858 859 860 861 862 862 863 864 866 866
805 808 811 813 815 818 820 823 825 828 831 834 836 838 840 842 843 845 847 848 850 851 851 852 852 854 855 856 855 857 857 859 859 859 860 861 861 863 864 865 865 866 867
808 810 812 815 817 819 823 825 827 830 833 836 839 841 843 845 846 848 849 850 852 853 854 854 855 856 857 858 858 859 859 860 861 861 862 863 863 864 865 866 867 868 869
810 814 816 818 820 822 824 828 830 832 835 838 841 843 845 847 849 850 851 852 854 854 855 856 857 858 858 859 860 860 861 861 862 863 864 865 866 866 867 867 868 869 870
811 815 818 821 823 825 827 829 832 835 837 840 843 845 847 849 851 853 854 854 855 856 857 858 859 859 860 860 862 862 863 862 863 864 865 866 868 869 870 870 870 870 871
815 818 821 823 825 827 830 832 834 837 840 842 845 847 849 851 852 854 855 856 857 857 858 859 860 860 861 861 863 863 863 863 864 865 867 867 869 871 871 871 870 871 871
818 821 823 826 828 830 832 835 837 839 842 844 847 848 851 852 854 855 857 857 858 859 859 860 861 861 862 862 863 864 864 863 864 866 867 867 868 870 871 871 871 871 870
820 823 825 827 830 832 835 837 840 842 844 846 848 851 852 853 854 856 857 858 860 859 860 860 861 862 862 863 864 865 864 864 864 865 867 867 868 869 870 871 872 872 871
821 823 825 828 831 833 835 838 841 843 846 847 849 851 852 854 855 856 857 859 860 860 861 861 861 861 862 863 864 865 865 865 865 866 866 867 867 868 869 870 871 871 871
820 823 826 829 832 834 836 837 840 843 846 848 849 851 852 854 856 857 858 859 860 860 861 861 861 861 862 863 864 865 865 866 866 866 865 865 866 866 867 868 869 870 871
819 822 825 827 831 834 837 838 840 842 845 847 849 851 852 853 855 857 858 858 859 860 860 861 862 862 862 863 863 864 864 865 865 864 864 864 864 865 865 866 867 867 868
817 820 823 825 828 832 835 838 840 842 844 846 848 850 851 853 855 857 857 858 858 859 859 860 861 861 861 862 862 862 863 863 863 862 862 862 863 864 865 865 866 867 867
814 817 821 825 828 830 832 835 837 840 843 845 847 848 850 852 853 855 857 858 857 857 858 858 858 859 859 860 860 860 861 861 861 861 861 861 862 863 864 864 864 865 866
811 815 818 822 827 830 833 837 839 840 842 843 845 846 848 849 851 852 855 854 854 855 855 856 856 856 857 858 858 858 859 859 859 859 860 861 861 861 862 862 862 863 864
812 814 818 822 825 830 832 836 839 841 842 843 843 844 846 847 849 850 850 850 851 852 853 854 854 855 855 856 856 856 856 857 857 857 857 857 858 858 859 860 860 861 863
810 813 817 821 824 827 830 834 837 839 840 841 842 843 843 844 845 846 846 847 848 849 850 851 851 852 853 853 853 854 854 854 855 855 855 854 854 855 856 857 858 859 859
809 813 817 820 823 826 830 833 835 836 836 836 836 837 839 840 841 842 842 843 844 845 845 846 847 848 849 850 851 849 850 851 851 851 851 851 851 852 852 853 854 855 856
809 810 813 817 820 824 826 828 831 830 831 831 831 832 833 834 835 836 837 838 838 839 840 841 843 844 845 847 848 846 844 845 845 845 846 846 846 847 848 849 849 850 851
805 809 813 817 819 821 823 825 826 825 826 829 829 827 826 827 829 829 829 829 831 832 834 836 838 839 840 842 845 846 844 840 838 838 838 840 841 843 843 844 845 846 846
803 807 810 811 812 815 818 820 820 821 821 821 821 819 820 821 823 822 823 823 824 825 826 829 831 832 834 836 838 841 844 840 835 831 830 833 835 836 837 838 839 840 841
801 804 805 806 808 812 815 818 817 815 814 812 812 813 813 814 816 817 817 817 817 818 818 820 822 824 827 830 832 833 834 834 835 833 829 828 829 829 830 832 833 834 834
800 801 803 806 808 811 812 814 815 812 810 806 805 805 805 806 807 809 810 809 810 810 811 812 814 816 818 821 823 825 826 828 829 831 830 828 826 826 826 826 828 829 827
800 801 804 805 807 809 811 811 812 812 809 807 804 801 800 799 799 801 801 801 801 802 801 803 805 806 808 810 813 815 819 819 821 823 825 822 822 819 821 821 822 822 822